TimeCET,TemperatureF,Dew PointF,Humidity,Sea Level PressureIn,VisibilityMPH,Wind Direction,Wind SpeedMPH,Gust SpeedMPH,PrecipitationIn,Events,Conditions,WindDirDegrees,DateUTC
6:00 AM,33.8,32.0,93,30.12,-9999.0,SE,3.5,-,N/A,,Clear,130,2012-11-23 05:00:00
6:30 AM,33.8,33.8,100,30.09,6.2,Variable,1.2,-,N/A,,Scattered Clouds,0,2012-11-23 05:30:00
7:00 AM,33.8,33.8,100,30.12,6.2,Calm,Calm,-,N/A,,Scattered Clouds,0,2012-11-23 06:00:00
7:30 AM,33.8,33.8,100,30.12,6.2,East,1.2,-,N/A,,Mostly Cloudy,80,2012-11-23 06:30:00
8:00 AM,35.6,33.8,93,30.12,6.2,SE,2.3,-,N/A,,Mostly Cloudy,130,2012-11-23 07:00:00
8:30 AM,35.6,33.8,93,30.12,6.2,SE,5.8,-,N/A,,Scattered Clouds,130,2012-11-23 07:30:00
9:00 AM,35.6,35.6,100,30.12,6.2,ESE,6.9,-,N/A,,Partly Cloudy,110,2012-11-23 08:00:00
9:30 AM,37.4,35.6,93,30.12,6.2,ESE,3.5,-,N/A,,Partly Cloudy,110,2012-11-23 08:30:00
10:00 AM,39.2,37.4,93,30.12,-9999.0,ESE,5.8,-,N/A,,Clear,120,2012-11-23 09:00:00
10:30 AM,41.0,39.2,93,30.12,-9999.0,SE,5.8,-,N/A,,Clear,130,2012-11-23 09:30:00
11:00 AM,46.4,42.8,87,30.12,-9999.0,SSE,5.8,-,N/A,,Clear,150,2012-11-23 10:00:00
11:30 AM,46.4,42.8,87,30.15,-9999.0,SE,5.8,-,N/A,,Clear,140,2012-11-23 10:30:00
12:00 PM,46.4,41.0,81,30.12,-9999.0,SE,5.8,-,N/A,,Clear,140,2012-11-23 11:00:00
12:30 PM,48.2,42.8,82,30.12,-9999.0,South,3.5,-,N/A,,Clear,190,2012-11-23 11:30:00
1:00 PM,50.0,42.8,76,30.12,-9999.0,Variable,1.2,-,N/A,,Clear,0,2012-11-23 12:00:00
1:30 PM,51.8,44.6,76,30.12,-9999.0,SSW,6.9,-,N/A,,Clear,210,2012-11-23 12:30:00
2:00 PM,51.8,44.6,76,30.09,-9999.0,SW,10.4,-,N/A,,Clear,220,2012-11-23 13:00:00
2:30 PM,51.8,44.6,76,30.09,6.2,SW,8.1,-,N/A,,Partly Cloudy,220,2012-11-23 13:30:00
3:00 PM,51.8,44.6,76,30.09,6.2,SW,8.1,-,N/A,,Partly Cloudy,220,2012-11-23 14:00:00
3:30 PM,51.8,44.6,76,30.09,6.2,SW,8.1,-,N/A,,Partly Cloudy,220,2012-11-23 14:30:00
4:00 PM,51.8,42.8,71,30.06,6.2,South,3.5,-,N/A,,Partly Cloudy,180,2012-11-23 15:00:00
4:30 PM,51.8,42.8,71,30.06,-9999.0,SE,3.5,-,N/A,,Clear,140,2012-11-23 15:30:00
5:00 PM,51.8,42.8,71,30.06,-9999.0,SE,5.8,-,N/A,,Clear,140,2012-11-23 16:00:00
5:30 PM,50.0,42.8,76,30.06,-9999.0,SSE,4.6,-,N/A,,Clear,150,2012-11-23 16:30:00
6:00 PM,48.2,42.8,82,30.06,-9999.0,SSE,3.5,-,N/A,,Clear,150,2012-11-23 17:00:00
6:30 PM,48.2,41.0,76,30.06,-9999.0,South,2.3,-,N/A,,Clear,170,2012-11-23 17:30:00
7:00 PM,48.2,41.0,76,30.06,-9999.0,Variable,2.3,-,N/A,,Clear,0,2012-11-23 18:00:00
7:30 PM,48.2,41.0,76,30.06,-9999.0,SE,3.5,-,N/A,,Clear,140,2012-11-23 18:30:00
8:00 PM,46.4,42.8,87,30.06,-9999.0,SSE,5.8,-,N/A,,Clear,150,2012-11-23 19:00:00
8:30 PM,48.2,41.0,76,30.06,-9999.0,Variable,2.3,-,N/A,,Clear,0,2012-11-23 19:30:00
9:00 PM,46.4,41.0,81,30.06,-9999.0,Variable,2.3,-,N/A,,Clear,0,2012-11-23 20:00:00
9:30 PM,46.4,41.0,81,30.06,-9999.0,Variable,2.3,-,N/A,,Clear,0,2012-11-23 20:30:00
10:00 PM,46.4,42.8,87,30.04,-9999.0,South,4.6,-,N/A,,Clear,180,2012-11-23 21:00:00
10:30 PM,46.4,42.8,87,30.06,-9999.0,South,3.5,-,N/A,,Clear,190,2012-11-23 21:30:00